Showing default

IRIDIUM 114, 41923

Orbit data source: Space-Track

IRIDIUM 114, 41923 is a payload satellite owned by Iridium (US) in LEO that was launched on Sat, 14 Jan 2017 UTC via an FALCON 9 launch vehicle from the Air Force Western Test Range (AFWTR). Payload-class satellites include a variety of spacecraft equipped with specific instruments for various scientific and technological missions. These include communications satellites like Starlink; space stations such as the ISS; scientific satellites like the Hubble; Earth observation satellites from companies like Planet Labs, Umbra, and HawkEye 360; GPS; miniature CubeSats for education and research; and military/defense satellites.

Loading next visibility...
Identifier
41923, 2017-003G
Orbit
LEO
Country
Flag of USUS
Related business
Manufacturer
OATK SSG Gilbert
Mission
Operational Commercial Communications
Bus & Motor
ELITEBUS, Unknown motor
Mass
860 kg wet, 700 kg dry
Launch date (UTC)
2017-01-14 (9 years ago)
Launch vehicle
FALCON 9
Launch site
Air Force Western Test Range (AFWTR)
Object type
Payload
Rocket body
Debris
Shape & HBR
Trap Box + 2 Pan, 4.7 m
Radar Cross Section
14.423 m², Large (>1 m²)

Expand to show TLE details & history
Last TLE update: 14 hours ago

TLE from 14 hours ago
0 IRIDIUM 114
1 41923U 17003G   25261.25831291  .00000092  00000-0  25878-4 0  9992
2 41923  86.4025 202.0265 0002346  89.0503 271.0961 14.34217755454270
Epoch: 2025-09-18T06:11Z
TLE epoch observation values (Epoch: 2025-09-18T06:11:58.235Z)
Latitude
-0.00008°
Longitude
111.61136°
Altitude
780.686 km
Speed
7.464 km/s
True Right ascension
13h 28m 06s
True Declination
0° 00' 00"
Sunlit
Object was in daylight at epoch
Visualization orbit readout
Latitude
Unknown
Longitude
Unknown
Altitude
Unknown
Speed
Unknown
Apparent Right ascension
Unknown
Apparent Declination
Unknown
Sunlit
N/A
Visualization observer readout
Local Sidereal Time
13:31:46
Azimuth
Unknown
Elevation
Unknown
Doppler factor
Unknown
Orbital elements
Apogee altitude
776.31 km
Perigee altitude
772.953 km
Semi-major axis
7,152.769 km
Eccentricity
0.00023
Inclination
86.4025°
RAAN
202.0265°
Arg. of periapsis
89.0503°
True anomaly
271.06922°
Mean anomaly
271.0961°
Eccentric anomaly
271.08266°
Mean motion
3.58783 °/min
Orbital period
100.34 mins
BSTAR
0.000025878
Loading maneuver chart data...
Computing Atmospheric mass density...
Loading historical data...
Loading historical data...
Loading historical data...
Loading historical data...
Loading historical data...
Loading historical data...
Loading historical data...

Documentation

Showing up to 5 results
|